If you wish to contribute or participate in the discussions about articles you are invited to join SKYbrary as a registered user

 Actions

Brussels South Charleroi Airport

From SKYbrary Wiki

EBCI
Airport
ICAO: EBCI
Summary
Name Brussels South Charleroi Airport
Region Europe
Territory Belgium BE.gif
Location Charleroi
Serving
Coordinates 50° 27' 45.70" N, 4° 27' 42.25" E
Runways
Designator Length Width Surface ROPS
7/25 2550 m8,366.142 ft
45 m147.638 ft
ASP yes/yes


METAR
Observation EBCI 242250Z 23020KT 9999 -DZ BKN010 BKN012 10/08 Q1006 TEMPO 4000 -RADZ BKN008
Station Charleroi / Gosselies
Date/Time 24 February 2020 22:50:00
Wind direction 230°
Wind speed 20 kts
Lowest cloud amount broken clouds
Temperature 10°C
Dew point 8°C
Humidity 87%
QNH 1006 hPa
Weather condition light drizzle

Charleroi Brussels South Airport

ICAO: EBCI IATA: CRL

Description

Charleroi airport is an international airport located in Gosselies, 46 km24.838 nm
46,000 m
150,918.635 ft
south of Brussels.

Climatology

Temperate Marine climate/Oceanic climate (Köppen climate classification Cfb). Moderately cool summer and comparatively warm winter with a temperature range of only 14°C57.2 °F
287.15 K
516.87 °R
. Prevailing south-westerly winds from the Atlantic Ocean.

Maps

Terrain

Loading map...

Airport Layout

Loading map...


Accidents & Serious Incidents at or in vicinity of EBCI

None on SKYbrary